PBO Station Position Time Series. Reference Frame : NAM14
Format Version,1.1.0
4-character ID,BFIR
Station name,BFIR
Begin Date, 2008-06-10
End Date, 2020-12-13
Release Date, 2021-08-28
Reference position, 47.6174217607 North Latitude, -122.1254989783 East Longitude, 121.64849 meters elevation,
Date, North (mm), East (mm), Vertical (mm), North Std. Deviation (mm), East Std. Deviation (mm),              Vertical Std. Deviation (mm), Quality,
2008-06-10,0.00, 0.00, 0.00, 2.28, 1.55, 7.03, repro,
2008-06-11,1.24, 0.19, -4.56, 2.28, 1.55, 6.97, repro,
2008-06-12,0.02, -0.40, 2.15, 2.28, 1.55, 6.99, repro,
2008-06-13,0.22, -0.31, -6.08, 2.26, 1.54, 6.93, repro,
2008-06-14,1.71, -0.26, -8.39, 2.27, 1.54, 6.94, repro,
2008-06-15,1.57, 0.02, -6.62, 2.29, 1.55, 7.04, repro,
2008-06-16,-0.52, -1.86, -1.75, 2.65, 1.76, 7.95, repro,
2008-06-17,-0.08, -1.13, -0.45, 2.25, 1.50, 6.83, repro,
2008-06-27,0.55, -1.77, -2.20, 2.24, 1.50, 6.85, repro,
2008-06-28,2.64, -1.49, -3.09, 2.24, 1.50, 6.79, repro,
2008-06-29,1.37, -2.10, -1.94, 2.22, 1.50, 6.84, repro,
2008-06-30,4.16, -3.78, -2.81, 2.32, 1.56, 6.97, repro,
2008-07-01,2.12, -2.76, -5.57, 2.25, 1.54, 6.96, repro,
2008-07-02,1.15, -2.53, -3.45, 2.28, 1.53, 7.00, repro,
2008-07-03,1.89, -1.51, -6.76, 2.26, 1.52, 6.97, repro,
2008-07-04,0.17, -1.66, -1.26, 2.22, 1.50, 6.80, repro,
2008-07-05,0.45, -0.55, 1.60, 2.21, 1.50, 6.78, repro,
2008-07-06,-0.55, -0.51, 1.65, 2.20, 1.50, 6.75, repro,
2008-07-07,-0.90, -2.09, 3.45, 2.22, 1.50, 6.81, repro,
2008-07-09,0.88, -1.20, 5.74, 2.22, 1.50, 6.81, repro,
2008-07-10,1.59, -2.36, 6.27, 2.28, 1.55, 6.96, repro,
2008-07-11,2.57, -2.19, -2.98, 2.27, 1.56, 7.00, repro,
2008-07-12,1.33, -1.47, -2.83, 2.22, 1.50, 6.85, repro,
2008-07-13,1.08, -2.14, 4.51, 2.28, 1.56, 7.11, repro,
2008-07-14,2.34, -1.32, 5.45, 2.25, 1.54, 7.02, repro,
2008-07-15,-0.02, -2.47, 8.56, 2.20, 1.50, 6.76, repro,
2008-07-16,1.80, -1.87, -1.69, 2.32, 1.57, 7.22, repro,
2008-07-17,0.94, -2.18, 3.50, 2.54, 1.77, 8.15, repro,
2008-07-18,1.01, -2.58, 6.39, 2.34, 1.55, 7.09, repro,
2008-07-19,-0.26, -0.99, 9.36, 2.27, 1.51, 6.91, repro,
2008-07-20,0.20, -2.43, 6.93, 2.23, 1.51, 6.84, repro,
2008-07-21,-0.74, -1.81, 7.14, 2.22, 1.51, 6.87, repro,
2008-07-22,-1.17, -1.34, 4.16, 2.24, 1.55, 7.04, repro,
2008-07-23,-0.76, -1.63, 1.05, 2.26, 1.51, 6.87, repro,
2008-07-24,-0.48, -1.55, 1.98, 2.30, 1.59, 7.24, repro,
2008-07-25,-0.48, -1.63, 8.35, 2.22, 1.50, 6.82, repro,
2008-07-26,-1.14, -2.07, 2.87, 2.21, 1.50, 6.77, repro,
2008-07-27,-0.41, -1.58, 5.20, 2.22, 1.50, 6.80, repro,
2008-07-28,-0.33, -1.20, 9.00, 2.33, 1.52, 6.90, repro,
2008-07-29,1.55, -0.51, 12.64, 2.60, 1.81, 8.54, repro,
2008-07-30,-1.56, -1.78, 17.65, 2.75, 1.89, 9.01, repro,
2008-07-31,-0.25, -0.36, 8.40, 2.22, 1.50, 6.85, repro,
2008-08-01,-1.53, 1.03, 16.51, 2.22, 1.51, 6.82, repro,
2008-08-02,-1.52, -0.96, 11.72, 2.20, 1.49, 6.75, repro,
2008-08-03,-1.10, -1.23, 7.76, 2.25, 1.53, 7.00, repro,
2008-08-04,-0.65, -0.64, 8.34, 2.22, 1.48, 6.77, repro,
2008-08-05,-1.32, -1.00, 8.44, 2.22, 1.50, 6.81, repro,
2008-08-06,-0.61, -0.15, 2.93, 2.26, 1.51, 6.85, repro,
2008-08-07,-0.28, -0.09, 10.10, 2.30, 1.56, 7.09, repro,
2008-08-08,0.03, -0.50, 10.45, 2.42, 1.61, 7.30, repro,
2008-08-09,-0.30, -1.61, 8.05, 2.28, 1.52, 6.92, repro,
2008-08-10,-2.42, -1.65, 6.60, 2.28, 1.51, 6.91, repro,
2008-08-11,-1.07, -0.88, 5.14, 2.27, 1.51, 6.86, repro,
2008-08-12,-0.47, -1.08, 9.55, 2.26, 1.51, 6.87, repro,
2008-08-13,-0.53, -0.84, 9.05, 2.27, 1.52, 6.92, repro,
2008-08-14,0.28, -0.62, 5.91, 2.27, 1.51, 6.87, repro,
2008-08-15,-1.37, -0.34, 5.82, 2.31, 1.53, 6.95, repro,
2008-08-16,-0.23, -0.78, 6.35, 2.29, 1.52, 6.93, repro,
2008-08-17,-1.33, -0.99, 13.56, 2.27, 1.53, 6.93, repro,
2008-08-18,-2.36, -0.82, 15.25, 2.29, 1.52, 6.92, repro,
2008-08-19,-1.64, -0.52, 10.11, 2.26, 1.50, 6.85, repro,
2008-08-20,-1.81, -1.26, 14.65, 2.29, 1.53, 6.97, repro,
2008-08-21,-5.15, -0.39, 18.18, 2.33, 1.52, 6.98, repro,
2008-08-22,1.02, -0.44, 6.30, 2.30, 1.52, 6.93, repro,
2008-08-23,-0.69, -0.01, 11.21, 2.28, 1.51, 6.87, repro,
2008-08-24,-0.38, 0.68, 3.72, 2.33, 1.59, 7.17, repro,
2008-08-25,-1.36, -0.81, 20.92, 2.28, 1.52, 6.90, repro,
2008-08-26,-2.17, -0.14, 9.84, 2.29, 1.51, 6.89, repro,
2008-08-27,-2.20, 0.14, 10.80, 2.29, 1.54, 7.02, repro,
2008-08-28,-0.89, 0.10, 11.84, 2.39, 1.58, 7.09, repro,
2008-08-29,-0.23, -2.30, 12.76, 2.30, 1.53, 6.96, repro,
2008-08-30,-0.89, -0.36, 15.33, 2.28, 1.52, 6.91, repro,
2008-08-31,-0.92, 0.30, 9.60, 2.30, 1.53, 6.98, repro,
2008-09-01,-0.95, 0.58, 2.41, 2.29, 1.54, 6.95, repro,
2008-09-02,-0.06, 0.28, 8.49, 2.29, 1.54, 6.94, repro,
2008-09-03,-1.12, 0.23, 9.25, 2.55, 1.74, 8.04, repro,
2008-09-04,0.45, 0.15, 12.52, 2.47, 1.64, 7.54, repro,
2008-09-05,0.61, -0.62, 7.39, 2.36, 1.59, 7.18, repro,
2008-09-06,-0.10, 0.37, 6.77, 2.31, 1.54, 7.02, repro,
2008-09-07,-0.46, 1.08, 10.99, 2.30, 1.54, 7.01, repro,
2008-09-08,-0.13, 1.37, 9.64, 2.30, 1.53, 6.98, repro,
2008-09-09,-1.70, 0.50, 12.73, 2.34, 1.54, 7.03, repro,
2008-09-10,0.35, 0.09, 7.18, 2.39, 1.59, 7.24, repro,
2008-09-11,-0.60, -0.20, 13.39, 2.34, 1.57, 7.07, repro,
2008-09-12,1.12, -0.26, 7.74, 2.29, 1.54, 7.01, repro,
2008-09-13,-0.36, -0.02, 11.02, 2.29, 1.53, 6.95, repro,
2008-09-14,-0.04, 1.34, 10.99, 2.30, 1.53, 6.94, repro,
2008-09-15,-0.52, 1.07, 11.65, 2.31, 1.52, 6.95, repro,
2008-09-16,0.39, 0.22, 8.40, 2.30, 1.57, 7.10, repro,
2008-09-17,-0.17, 1.18, 5.30, 2.37, 1.58, 7.21, repro,
2008-09-18,-0.33, 0.30, 8.43, 2.26, 1.51, 6.85, repro,
2008-09-19,-1.17, 0.42, 4.15, 2.32, 1.51, 6.89, repro,
2008-09-20,-0.25, 0.31, 7.10, 2.25, 1.51, 6.84, repro,
2008-09-21,-2.01, -0.12, 11.91, 2.27, 1.52, 6.88, repro,
2008-09-22,-1.12, 1.66, 9.05, 2.69, 1.80, 8.19, repro,
2008-09-23,-1.57, 1.82, -220.42, 2.26, 1.51, 6.86, repro,
2008-09-24,-3.39, 2.61, -231.81, 2.33, 1.55, 7.04, repro,
2008-09-25,-3.53, 2.89, -228.59, 2.49, 1.64, 7.35, repro,
2008-09-26,-1.97, 2.10, -223.04, 2.27, 1.51, 6.85, repro,
2008-09-27,-1.18, 2.79, -226.49, 2.32, 1.55, 7.00, repro,
2008-09-28,-1.00, 2.52, -230.83, 2.30, 1.52, 6.97, repro,
2008-09-29,-1.26, 1.80, -226.13, 2.30, 1.51, 6.90, repro,
2008-09-30,-0.54, -0.07, 4.31, 2.31, 1.52, 6.95, repro,
2008-10-01,-1.35, 0.58, 3.34, 2.28, 1.50, 6.85, repro,
2008-10-02,-1.42, 0.24, 10.09, 2.31, 1.55, 6.95, repro,
2008-10-03,-0.15, 0.48, 11.03, 2.33, 1.55, 7.00, repro,
2008-10-04,-1.88, -1.47, 14.71, 2.30, 1.51, 6.90, repro,
2008-10-05,0.35, -1.68, 12.00, 2.29, 1.51, 6.88, repro,
2008-10-06,0.21, -0.48, 12.08, 2.27, 1.50, 6.82, repro,
2008-10-07,-1.79, 0.78, -1.16, 2.33, 1.53, 6.96, repro,
2008-10-08,-0.28, 2.01, -0.60, 2.30, 1.53, 6.93, repro,
2008-10-09,-0.29, 0.84, 2.00, 2.22, 1.49, 6.76, repro,
2008-10-10,-0.12, 1.40, 0.15, 2.24, 1.50, 6.84, repro,
2008-10-11,-0.92, 1.36, 4.64, 2.22, 1.49, 6.79, repro,
2008-10-12,-1.05, -0.41, 3.73, 2.22, 1.49, 6.79, repro,
2008-10-13,-2.98, -0.61, 6.39, 2.22, 1.48, 6.74, repro,
2008-10-14,-1.88, -0.06, -1.58, 2.22, 1.49, 6.80, repro,
2008-10-15,-0.49, 0.09, 2.24, 2.30, 1.53, 7.02, repro,
2008-10-16,-0.47, 0.33, 2.80, 2.29, 1.53, 7.06, repro,
2008-10-17,0.92, 1.16, -0.90, 2.25, 1.51, 6.83, repro,
2008-10-18,0.04, -0.16, 5.99, 2.23, 1.51, 6.88, repro,
2008-10-19,-1.31, 0.73, 0.23, 2.24, 1.51, 6.91, repro,
2008-10-20,0.17, 1.26, 0.48, 2.41, 1.59, 7.12, repro,
2008-10-21,-0.01, 0.86, -4.33, 2.32, 1.56, 7.10, repro,
2008-10-22,-1.15, 1.57, 0.34, 2.22, 1.51, 6.87, repro,
2008-10-23,-1.00, 0.09, 8.02, 2.21, 1.50, 6.82, repro,
2008-10-24,-1.85, 1.28, 8.59, 2.22, 1.50, 6.83, repro,
2008-10-25,-0.82, 0.18, 8.58, 2.24, 1.51, 6.90, repro,
2008-10-26,0.13, 0.48, -2.85, 2.21, 1.49, 6.81, repro,
2008-10-27,-0.09, -0.16, 2.76, 2.21, 1.49, 6.80, repro,
2008-10-28,-0.20, 0.66, -2.64, 2.31, 1.53, 6.90, repro,
2008-10-29,-2.24, 0.52, 4.57, 2.32, 1.53, 6.92, repro,
2008-10-30,-1.90, 0.92, 0.75, 2.23, 1.50, 6.76, repro,
2008-10-31,-4.06, -0.47, 2.34, 2.33, 1.59, 7.34, repro,
2008-11-01,-0.71, 0.87, 8.79, 2.22, 1.50, 6.82, repro,
2008-11-02,-0.81, -0.28, 9.84, 2.27, 1.56, 7.14, repro,
2008-11-03,-0.93, 0.97, 7.84, 2.28, 1.59, 7.23, repro,
2008-11-04,-2.77, 0.30, 17.95, 2.22, 1.49, 6.79, repro,
2008-11-05,-2.11, 0.58, 8.34, 2.26, 1.55, 7.02, repro,
2008-11-06,-1.91, 0.72, 2.90, 2.27, 1.58, 7.18, repro,
2008-11-07,-0.94, 1.56, 5.04, 2.27, 1.56, 7.07, repro,
2008-11-08,-1.19, 1.92, 0.37, 2.32, 1.60, 7.30, repro,
2008-11-09,-1.39, 1.20, 14.03, 2.24, 1.54, 6.96, repro,
2008-11-10,0.94, 1.25, 4.15, 2.25, 1.55, 6.96, repro,
2008-11-11,-1.01, 0.50, 11.08, 2.30, 1.58, 7.15, repro,
2008-11-12,0.17, 1.29, 13.63, 2.22, 1.51, 6.85, repro,
2008-11-13,-2.08, 2.35, 5.99, 2.32, 1.57, 7.10, repro,
2008-11-14,-1.68, 1.68, -1.05, 2.28, 1.58, 7.17, repro,
2008-11-15,-0.27, 2.31, -1.35, 2.25, 1.53, 6.93, repro,
2008-11-16,0.37, 0.87, 2.41, 2.24, 1.59, 7.12, repro,
2008-11-17,-0.67, 2.40, -2.06, 2.37, 1.64, 7.42, repro,
2008-11-18,-0.31, 1.58, 3.58, 2.29, 1.62, 7.32, repro,
2008-11-19,-0.76, 2.21, -3.32, 2.26, 1.56, 7.08, repro,
2008-11-20,-0.60, 2.77, -4.30, 2.31, 1.60, 7.20, repro,
2008-11-21,-1.51, 0.84, 1.51, 2.34, 1.63, 7.24, repro,
2008-11-22,0.16, 0.96, 9.95, 2.30, 1.60, 7.18, repro,
2008-11-23,-0.90, 2.27, 2.40, 2.31, 1.58, 7.20, repro,
2008-11-24,-0.86, 1.93, 1.87, 2.37, 1.66, 7.47, repro,
2008-11-25,0.03, 0.75, 9.54, 2.24, 1.55, 7.00, repro,
2008-11-26,-1.35, 1.33, -0.90, 2.23, 1.51, 6.81, repro,
2008-11-27,1.53, 1.31, -2.57, 2.23, 1.59, 7.12, repro,
2008-11-28,0.83, 1.67, 6.23, 2.29, 1.63, 7.32, repro,
2008-11-29,0.75, 0.81, 2.28, 2.30, 1.63, 7.39, repro,
2008-11-30,0.22, 2.01, 5.78, 2.22, 1.52, 6.86, repro,
2008-12-01,-1.49, 1.52, 9.75, 2.23, 1.52, 6.85, repro,
2008-12-02,0.61, 1.58, 4.33, 2.28, 1.59, 7.08, repro,
2008-12-03,-0.28, 2.60, 7.14, 2.26, 1.57, 7.00, repro,
2008-12-04,2.21, 4.65, 5.15, 2.26, 1.57, 7.12, repro,
2008-12-05,-0.71, 1.77, 2.36, 2.29, 1.59, 7.09, repro,
2008-12-06,1.18, 1.28, 6.14, 2.24, 1.61, 7.16, repro,
2008-12-07,0.60, 2.19, 2.41, 2.25, 1.60, 7.16, repro,
2008-12-08,1.07, 1.01, -1.62, 2.24, 1.58, 7.14, repro,
2008-12-09,1.78, -0.24, -9.87, 2.23, 1.52, 6.88, repro,
2008-12-10,0.65, 1.07, -4.93, 2.26, 1.52, 6.93, repro,
2008-12-11,1.58, 0.88, 0.36, 2.32, 1.56, 7.10, repro,
2008-12-12,1.21, 0.39, 7.05, 2.31, 1.60, 7.19, repro,
2008-12-13,1.04, 0.81, 8.63, 2.24, 1.53, 6.96, repro,
2008-12-14,2.22, -0.80, 7.46, 2.22, 1.50, 6.80, repro,
2008-12-16,1.50, 1.25, 0.72, 2.23, 1.51, 6.89, repro,
2008-12-17,1.36, -0.01, 0.83, 2.27, 1.50, 6.86, repro,
2008-12-18,1.21, 0.04, 6.56, 2.24, 1.50, 6.87, repro,
2008-12-19,0.51, 1.63, -4.68, 2.30, 1.57, 7.23, repro,
2008-12-20,0.94, 0.72, -6.79, 2.22, 1.51, 6.86, repro,
2008-12-21,-1.25, -3.48, 0.17, 2.23, 1.50, 6.89, repro,
2008-12-22,-2.12, -8.19, 2.17, 2.25, 1.52, 6.96, repro,
2008-12-23,-1.68, -1.52, 4.32, 3.05, 1.88, 8.62, repro,
2008-12-24,-0.09, -1.93, 6.77, 2.25, 1.50, 6.87, repro,
2008-12-25,2.45, -0.59, 15.22, 2.27, 1.53, 7.03, repro,
2009-01-01,0.12, -0.04, 8.14, 2.22, 1.50, 6.87, repro,
2009-01-02,-0.31, 1.52, 5.14, 2.23, 1.51, 6.88, repro,
2009-01-03,3.35, 0.72, 2.46, 5.84, 3.64, 17.96, repro,
2009-01-06,-0.68, 0.48, 3.20, 2.23, 1.51, 6.88, repro,
2009-01-07,-0.22, -0.44, 5.11, 2.27, 1.53, 7.03, repro,
2009-01-08,0.68, 0.88, -1.60, 2.29, 1.55, 7.07, repro,
2009-01-09,0.68, 1.22, -9.22, 2.24, 1.54, 6.99, repro,
2009-01-10,-0.17, 0.76, -14.86, 2.21, 1.50, 6.82, repro,
2009-01-11,0.79, 1.66, -8.99, 2.21, 1.50, 6.84, repro,
2009-01-12,-0.05, 3.19, -10.77, 2.23, 1.52, 6.91, repro,
2009-01-13,0.25, 2.12, -12.27, 2.21, 1.52, 6.89, repro,
2009-01-14,1.81, 1.29, -11.36, 2.21, 1.51, 6.88, repro,
2009-01-15,-0.11, 1.30, -7.50, 2.18, 1.49, 6.76, repro,
2009-01-16,-0.03, 1.43, -6.47, 2.20, 1.49, 6.80, repro,
2009-01-17,1.26, 1.79, -6.57, 2.20, 1.51, 6.88, repro,
2009-01-18,1.15, 1.54, -8.87, 2.23, 1.52, 6.91, repro,
2009-01-19,0.46, 1.21, -12.28, 2.22, 1.52, 6.92, repro,
2009-01-20,-0.19, 0.74, -6.18, 2.20, 1.50, 6.83, repro,
2009-01-21,-0.08, 1.06, -1.07, 2.18, 1.49, 6.76, repro,
2009-01-22,1.61, 1.54, 2.57, 2.37, 1.63, 7.42, repro,
2009-01-23,-0.29, 1.64, -7.07, 2.20, 1.51, 6.88, repro,
2009-01-24,1.56, 1.34, -10.66, 2.21, 1.51, 6.92, repro,
2009-01-25,0.08, -0.38, -8.20, 2.20, 1.51, 6.86, repro,
2009-01-26,-1.19, 0.13, -9.19, 2.20, 1.50, 6.84, repro,
2009-01-27,4.43, -1.34, 9.60, 6.56, 3.93, 19.62, repro,
2009-01-28,0.51, 1.12, -4.90, 2.18, 1.50, 6.81, repro,
2009-01-29,-0.87, 1.15, -10.75, 2.20, 1.51, 6.87, repro,
2009-01-30,0.04, 1.28, -7.11, 2.21, 1.51, 6.87, repro,
2009-01-31,0.02, 0.81, -9.36, 2.20, 1.52, 6.91, repro,
2009-02-01,-0.25, 0.31, -5.55, 2.20, 1.51, 6.84, repro,
2009-02-02,0.22, 1.46, -3.43, 2.72, 1.80, 8.23, repro,
2009-02-03,0.45, 1.35, -9.32, 2.19, 1.52, 6.83, repro,
2009-02-04,-0.17, 1.61, -6.08, 2.20, 1.52, 6.89, repro,
2009-02-05,0.74, 0.94, -2.02, 2.24, 1.55, 6.99, repro,
2009-02-06,-0.96, 0.07, 0.06, 2.23, 1.55, 6.96, repro,
2009-02-07,-1.21, 1.27, -6.00, 2.19, 1.51, 6.83, repro,
2009-02-08,-1.10, 2.21, -1.08, 2.26, 1.56, 7.03, repro,
2009-02-09,-2.40, -0.69, 2.58, 2.35, 1.61, 7.13, repro,
2009-02-10,-0.35, -0.29, -1.94, 2.20, 1.52, 6.90, repro,
2009-02-11,0.11, 1.09, -4.62, 2.29, 1.60, 7.22, repro,
2009-02-12,0.46, 0.27, -2.61, 2.25, 1.55, 7.03, repro,
2009-02-13,-2.23, 1.22, -2.61, 2.26, 1.55, 7.00, repro,
2009-02-14,-0.72, 1.05, -0.40, 2.20, 1.52, 6.85, repro,
2009-02-15,0.03, 1.37, -1.29, 2.21, 1.55, 7.03, repro,
2009-02-16,0.29, 0.23, 5.25, 2.20, 1.53, 6.91, repro,
2009-02-17,0.25, 0.48, 5.30, 2.24, 1.54, 6.95, repro,
2009-02-18,-0.41, 0.09, -0.24, 2.26, 1.55, 7.03, repro,
2009-02-19,-0.28, 1.33, -8.23, 2.23, 1.54, 7.01, repro,
2009-02-20,-0.30, 1.74, -8.25, 2.18, 1.54, 6.92, repro,
2009-02-21,-0.82, 0.34, -6.50, 2.22, 1.55, 7.05, repro,
2009-02-22,0.43, 0.57, 0.76, 2.21, 1.52, 6.93, repro,
2009-02-23,0.40, 1.16, -5.49, 2.23, 1.55, 7.01, repro,
2009-02-24,-0.04, 1.11, 2.10, 2.28, 1.62, 7.15, repro,
2009-02-25,-0.71, 0.27, -4.66, 159.84, 197.78, 373.96, repro,
2009-02-26,0.90, 0.62, 2.64, 2.22, 1.56, 7.03, repro,
2009-02-27,0.99, 1.03, -7.63, 2.24, 1.59, 7.15, repro,
2009-02-28,-0.69, 0.32, -5.76, 2.21, 1.55, 7.04, repro,
2009-03-01,0.18, 0.95, 1.96, 2.21, 1.55, 7.02, repro,
2009-03-02,-1.56, 0.99, -4.20, 2.18, 1.53, 6.92, repro,
2009-03-03,0.47, 0.09, 4.82, 2.25, 1.57, 7.08, repro,
2009-03-04,-0.82, -0.08, 1.92, 2.18, 1.53, 6.94, repro,
2009-03-05,-1.99, 0.38, 0.20, 2.19, 1.53, 6.94, repro,
2009-03-06,0.62, 0.24, 3.06, 2.23, 1.60, 7.13, repro,
2009-03-07,-0.50, 0.06, -4.34, 2.18, 1.52, 6.86, repro,
2009-03-08,0.65, 2.17, -3.99, 2.19, 1.52, 6.89, repro,
2009-03-09,0.99, 0.94, -0.46, 2.21, 1.55, 7.01, repro,
2009-03-10,0.17, 0.83, -5.00, 2.21, 1.54, 6.99, repro,
2009-03-11,0.17, 0.46, -4.15, 2.16, 1.51, 6.79, repro,
2009-03-12,-0.77, 1.37, -10.13, 2.17, 1.51, 6.82, repro,
2009-03-13,0.47, 0.77, -4.12, 2.20, 1.54, 6.95, repro,
2009-03-14,-0.72, -1.75, 2.34, 2.18, 1.52, 6.84, repro,
2009-03-15,-3.04, -2.04, 10.50, 2.18, 1.54, 6.95, repro,
2009-03-16,0.46, 0.66, 2.60, 2.18, 1.53, 6.90, repro,
2009-03-17,-1.51, -2.90, -15.91, 6.02, 3.94, 18.15, repro,
2009-03-18,0.90, -1.16, -17.77, 5.90, 3.98, 18.33, repro,
2009-03-19,0.16, 3.40, -7.91, 3.90, 2.58, 11.10, repro,
2009-03-20,0.11, 1.39, 1.94, 3.98, 2.63, 11.41, repro,
2009-03-21,-2.04, 2.19, 4.05, 4.00, 2.67, 11.60, repro,
2009-03-22,-3.77, -0.32, -0.86, 3.91, 2.62, 11.34, repro,
2009-03-23,-1.59, 0.59, -2.64, 3.90, 2.62, 11.36, repro,
2009-03-24,-2.54, 0.69, -2.07, 3.86, 2.61, 11.29, repro,
2009-03-25,-2.36, -0.33, -1.77, 3.85, 2.61, 11.31, repro,
2009-03-26,-3.16, -1.37, -9.22, 3.92, 2.67, 11.51, repro,
2009-03-27,-4.17, -1.73, -18.03, 3.93, 2.74, 11.94, repro,
2009-03-28,-3.69, -1.63, -9.21, 3.89, 2.66, 11.58, repro,
2009-03-29,-4.07, -1.39, -7.47, 3.86, 2.67, 11.62, repro,
2009-03-30,-4.43, 1.15, -9.59, 3.81, 2.63, 11.41, repro,
2009-03-31,-1.90, -2.30, -13.52, 3.85, 2.68, 11.62, repro,
2009-04-01,-5.17, -0.78, -5.46, 3.90, 2.71, 11.79, repro,
2009-04-02,-3.38, -1.30, -12.05, 3.84, 2.70, 11.69, repro,
2009-04-03,-2.78, -0.16, -6.38, 3.87, 2.70, 11.65, repro,
2009-04-04,-3.09, -0.04, -9.48, 3.89, 2.69, 11.62, repro,
2009-04-05,-3.97, 1.89, -4.50, 3.93, 2.66, 11.53, repro,
2009-04-06,-5.39, -2.72, -15.88, 3.93, 2.71, 11.69, repro,
2009-04-07,-6.09, -1.85, -8.05, 4.02, 2.74, 11.97, repro,
2009-04-08,-6.07, -1.99, -9.88, 3.92, 2.67, 11.54, repro,
2009-04-09,-4.19, -2.24, -10.55, 3.87, 2.66, 11.36, repro,
2009-04-10,-0.96, 1.10, -0.80, 2.24, 1.53, 6.96, repro,
2009-04-11,-1.67, -0.66, -3.54, 2.24, 1.53, 6.93, repro,
2009-04-12,-0.22, -1.00, -3.37, 2.24, 1.53, 6.95, repro,
2009-04-13,-2.23, 0.75, -11.53, 2.21, 1.51, 6.93, repro,
2009-04-14,-0.65, 0.78, -1.99, 2.18, 1.50, 6.81, repro,
2009-04-15,-0.65, 0.83, -2.78, 2.26, 1.56, 7.11, repro,
2009-04-16,-1.07, 0.23, -9.35, 2.22, 1.52, 6.90, repro,
2009-04-17,0.13, 1.18, -9.78, 2.22, 1.52, 6.96, repro,
2009-04-18,-0.33, 0.83, -4.12, 2.21, 1.56, 6.97, repro,
2009-04-19,-1.58, 2.18, -6.12, 2.24, 1.56, 6.97, repro,
2009-04-20,-1.40, 1.10, -4.64, 2.25, 1.55, 6.99, repro,
2009-04-21,-1.09, 1.50, -5.14, 2.25, 1.55, 7.02, repro,
2009-04-22,1.14, 0.09, -1.43, 2.27, 1.57, 7.12, repro,
2009-04-23,-0.59, 0.65, 2.07, 2.31, 1.60, 7.18, repro,
2009-04-24,-0.66, 0.00, 4.19, 2.31, 1.59, 7.14, repro,
2009-04-25,0.26, 0.61, -2.39, 2.28, 1.56, 7.03, repro,
2009-04-26,-1.43, 1.01, -6.68, 2.25, 1.55, 7.00, repro,
2009-04-27,-1.08, 0.85, -3.46, 2.27, 1.54, 7.03, repro,
2009-04-28,-0.91, 1.12, 1.47, 2.23, 1.51, 6.93, repro,
2009-04-29,-0.75, -0.02, 0.72, 2.30, 1.60, 7.17, repro,
2009-04-30,-1.28, 0.56, -13.35, 2.24, 1.57, 7.10, repro,
2009-05-01,-1.27, -0.08, 0.74, 2.21, 1.50, 6.82, repro,
2009-05-02,-2.12, 1.20, -1.77, 2.22, 1.50, 6.87, repro,
2009-05-03,-1.20, 0.11, 0.22, 2.22, 1.50, 6.83, repro,
2009-05-04,-1.41, 0.16, 9.12, 2.20, 1.52, 6.87, repro,
2009-05-05,-2.48, -0.03, 3.43, 2.20, 1.50, 6.83, repro,
2009-05-06,-1.27, -0.56, -2.75, 2.23, 1.50, 6.83, repro,
2009-05-07,0.09, 1.47, -0.71, 2.22, 1.50, 6.84, repro,
2009-05-08,-1.55, -0.02, -4.25, 2.22, 1.50, 6.86, repro,
2009-05-09,-1.68, -0.55, -5.00, 2.22, 1.50, 6.82, repro,
2009-05-10,-1.22, -0.46, -6.90, 2.19, 1.51, 6.86, repro,
2009-05-11,-1.21, -1.43, 0.05, 2.19, 1.49, 6.77, repro,
2009-05-12,-0.65, -0.63, -0.41, 2.25, 1.53, 6.96, repro,
2009-05-13,-0.38, -0.50, 1.07, 2.24, 1.55, 6.97, repro,
2009-05-14,-0.80, -0.57, -3.38, 2.21, 1.50, 6.86, repro,
2009-05-15,-0.32, -1.01, 0.61, 2.20, 1.50, 6.82, repro,
2009-05-16,-0.89, -0.52, -8.44, 2.22, 1.50, 6.87, repro,
2009-05-17,-1.40, -2.24, -9.09, 2.21, 1.50, 6.85, repro,
2009-05-18,-1.97, -0.77, -6.86, 2.21, 1.51, 6.87, repro,
2009-05-19,-1.28, -2.02, -1.81, 2.31, 1.62, 7.52, repro,
2009-05-20,0.28, -1.59, -2.28, 2.20, 1.50, 6.82, repro,
2009-05-21,1.20, -1.09, -4.30, 2.20, 1.51, 6.87, repro,
2009-05-22,1.01, -1.96, -7.66, 2.21, 1.51, 6.93, repro,
2009-05-23,2.19, -0.88, -13.60, 2.49, 1.67, 7.86, repro,
2009-05-24,1.56, -1.75, -8.20, 2.19, 1.50, 6.82, repro,
2009-05-25,-0.15, -1.87, -0.52, 2.21, 1.50, 6.86, repro,
2009-05-26,0.97, -2.78, 4.80, 2.20, 1.51, 6.86, repro,
2009-05-27,-0.73, -2.48, -1.63, 2.21, 1.50, 6.91, repro,
2009-05-28,0.74, -2.47, -2.77, 2.20, 1.50, 6.88, repro,
2009-05-29,0.19, -0.78, -4.06, 2.19, 1.50, 6.87, repro,
2009-05-30,0.45, -2.01, -1.90, 2.19, 1.50, 6.88, repro,
2009-05-31,1.82, -1.70, -3.68, 2.19, 1.49, 6.84, repro,
2009-06-01,0.76, -1.47, 2.28, 2.21, 1.51, 6.91, repro,
2009-06-02,-0.31, -2.37, -11.06, 2.22, 1.52, 6.99, repro,
2009-06-03,-0.02, -2.48, -4.09, 2.21, 1.51, 6.92, repro,
2009-06-04,2.74, -1.88, -7.73, 2.22, 1.50, 6.94, repro,
2009-06-05,1.58, -1.99, -0.87, 2.19, 1.49, 6.84, repro,
2009-06-06,1.07, -1.59, 0.78, 2.24, 1.53, 6.98, repro,
2009-06-07,-0.58, -3.83, -8.13, 2.83, 1.82, 8.22, repro,
2009-06-08,0.20, -2.51, -1.52, 2.25, 1.52, 6.98, repro,
2009-06-09,-0.56, -3.69, -0.19, 2.26, 1.51, 6.95, repro,
2009-06-10,-0.41, -2.98, -4.99, 2.21, 1.50, 6.86, repro,
2009-06-11,-0.44, -1.86, 1.45, 2.21, 1.49, 6.82, repro,
2009-06-12,-1.46, -1.56, 2.51, 2.21, 1.51, 6.85, repro,
2009-06-13,1.26, -2.16, 0.88, 2.25, 1.52, 6.98, repro,
2009-06-14,-0.53, -2.48, 2.12, 2.27, 1.56, 7.08, repro,
2009-06-15,-1.52, -2.49, -2.43, 2.23, 1.51, 6.92, repro,
2009-06-16,-0.02, -2.36, -0.73, 2.22, 1.51, 6.87, repro,
2009-06-17,-1.29, -1.53, 1.43, 2.21, 1.51, 6.86, repro,
2009-06-18,1.45, -2.16, 0.80, 2.22, 1.52, 6.93, repro,
2009-06-19,0.16, -1.98, 6.71, 2.31, 1.60, 7.37, repro,
2009-06-20,0.56, -0.81, 1.70, 2.29, 1.54, 7.07, repro,
2009-06-21,1.10, -1.89, -0.72, 2.22, 1.53, 6.98, repro,
2009-06-22,-1.08, -2.41, 3.69, 2.21, 1.51, 6.88, repro,
2009-06-23,-1.25, -2.48, 4.92, 2.21, 1.52, 6.88, repro,
2009-06-24,0.17, -2.07, 0.05, 2.24, 1.53, 6.96, repro,
2009-06-25,-0.05, -2.95, 1.25, 2.22, 1.52, 6.90, repro,
2009-06-26,0.16, -1.75, 0.94, 2.23, 1.53, 6.92, repro,
2009-06-27,0.78, -1.55, -2.38, 2.26, 1.54, 7.04, repro,
2009-06-28,-0.38, -1.06, -1.75, 2.24, 1.53, 7.00, repro,
2009-06-29,-0.41, -1.61, 3.88, 2.23, 1.54, 6.96, repro,
2009-06-30,0.86, -1.80, -1.35, 2.26, 1.55, 7.05, repro,
2009-07-01,1.01, -2.02, 1.55, 2.25, 1.54, 6.99, repro,
2009-07-02,0.04, -1.69, 0.53, 2.22, 1.51, 6.83, repro,
2009-07-03,0.59, -2.38, 4.97, 2.22, 1.53, 6.92, repro,
2009-07-04,1.00, -1.95, 6.12, 2.22, 1.52, 6.88, repro,
2009-07-05,-1.06, -1.48, 2.31, 2.23, 1.52, 6.90, repro,
2009-07-06,-0.19, -2.40, 3.46, 2.24, 1.52, 6.91, repro,
2009-07-07,-0.64, -2.34, 4.40, 2.23, 1.51, 6.87, repro,
2009-07-08,-1.50, -1.79, 4.11, 2.23, 1.52, 6.85, repro,
2009-07-09,-0.76, -2.54, 7.12, 2.22, 1.51, 6.86, repro,
2009-07-10,0.34, -0.89, 2.09, 2.23, 1.52, 6.90, repro,
2009-07-11,-0.21, -0.22, 0.63, 2.23, 1.53, 6.93, repro,
2009-07-12,0.92, -1.54, 0.57, 2.22, 1.52, 6.86, repro,
2009-07-13,-1.16, 0.17, 8.20, 2.23, 1.52, 6.90, repro,
2009-07-14,-0.54, -1.57, 8.31, 2.22, 1.52, 6.88, repro,
2009-07-15,-2.50, -1.12, 4.43, 2.22, 1.52, 6.86, repro,
2009-07-16,0.22, -1.30, 7.23, 2.20, 1.52, 6.84, repro,
2009-07-17,-0.63, -1.04, 9.76, 2.20, 1.52, 6.86, repro,
2009-07-18,0.51, -1.84, 4.68, 2.23, 1.53, 6.94, repro,
2009-07-19,-1.56, -1.69, 3.37, 2.23, 1.52, 6.88, repro,
2009-07-20,-1.10, -1.81, 7.30, 2.22, 1.51, 6.86, repro,
2009-07-21,-0.64, -1.53, 8.13, 2.21, 1.51, 6.85, repro,
2009-07-22,-0.64, -1.14, 11.39, 2.21, 1.56, 7.03, repro,
2009-07-23,-0.31, -0.51, 4.63, 2.21, 1.52, 6.86, repro,
2009-07-24,-1.16, -0.45, -0.57, 2.29, 1.57, 7.16, repro,
2009-07-25,0.63, -0.07, 5.29, 2.30, 1.55, 7.13, repro,
2009-07-26,0.10, -0.83, 5.13, 2.31, 1.61, 7.46, repro,
2009-07-27,-0.72, -0.69, 6.87, 2.21, 1.52, 6.89, repro,
2009-07-28,1.70, -1.69, 8.43, 2.21, 1.52, 6.88, repro,
2009-07-29,0.70, -1.35, 0.98, 2.22, 1.52, 6.88, repro,
2009-07-30,0.15, 0.17, 5.71, 2.31, 1.58, 7.25, repro,
2009-07-31,1.07, -1.57, 5.36, 2.23, 1.52, 6.91, repro,
2009-08-01,-0.43, -1.93, 4.13, 2.22, 1.52, 6.91, repro,
2009-08-02,0.20, -0.83, 10.18, 2.25, 1.57, 7.15, repro,
2009-08-03,0.98, -1.14, -1.46, 2.21, 1.52, 6.86, repro,
2009-08-04,0.68, -1.57, 9.30, 2.25, 1.58, 7.13, repro,
2009-08-05,-0.58, -0.92, 0.29, 2.31, 1.58, 7.26, repro,
2009-08-06,-0.03, -2.06, 5.95, 2.24, 1.53, 6.95, repro,
2009-08-07,-0.86, -1.19, 3.54, 2.39, 1.64, 7.51, repro,
2009-08-08,-2.04, -1.77, 8.43, 2.22, 1.53, 6.90, repro,
2009-08-09,-0.15, -1.48, 5.63, 2.25, 1.57, 7.10, repro,
2009-08-10,-0.35, -0.14, 5.28, 2.25, 1.53, 6.95, repro,
2009-08-11,-1.07, -0.48, 3.67, 2.24, 1.53, 6.91, repro,
2009-08-12,-1.88, -0.20, 3.45, 2.25, 1.54, 6.97, repro,
2009-08-13,-1.29, -1.85, -0.22, 2.22, 1.52, 6.84, repro,
2009-08-14,-0.24, -1.11, 8.52, 2.23, 1.53, 6.89, repro,
2009-08-15,-1.31, -1.02, 6.55, 2.24, 1.53, 6.89, repro,
2009-08-16,0.72, -1.34, 4.06, 2.26, 1.54, 7.00, repro,
2009-08-17,-1.99, -0.89, 7.79, 2.27, 1.54, 6.99, repro,
2009-08-18,-1.68, -0.40, 3.47, 2.28, 1.54, 7.05, repro,
2009-08-19,-0.45, -1.21, 8.30, 2.26, 1.53, 6.95, repro,
2009-08-20,0.71, -1.82, 1.45, 2.25, 1.55, 7.00, repro,
2009-08-21,1.10, -0.67, 5.28, 2.29, 1.58, 7.08, repro,
2009-08-22,-0.20, -0.71, 6.22, 2.36, 1.63, 7.40, repro,
2009-08-23,-1.18, -3.48, 9.36, 2.37, 1.62, 7.37, repro,